This is the latest recevied weather packets stored in our database for station/object IZ1UQG-N2. If no packets are shown the sender has not sent any weather packets the latest 10 day(s).
| Time | Temp. | Humidity | Pressure | Rain* | Wind** | Luminosity | Snow |
|---|---|---|---|---|---|---|---|
| 1777633507 | 16.11° C | 40% | 1026.1 hPa | 0 mm | - | 715 W/m² | - |
| 1777633467 | 15.56° C | 40% | 1026.1 hPa | 0 mm | - | 687 W/m² | - |
| 1777633407 | 16.11° C | 39% | 1026.3 hPa | 0 mm | - | 958 W/m² | - |
| 1777633357 | 16.11° C | 41% | 1026.2 hPa | 0 mm | - | 719 W/m² | - |
| 1777633348 | 16.11° C | 40% | 1026.2 hPa | 0 mm | - | 747 W/m² | - |
| 1777633328 | 16.11° C | 40% | 1026.2 hPa | 0 mm | - | 747 W/m² | - |
| 1777633288 | 16.11° C | 40% | 1026.2 hPa | 0 mm | - | 693 W/m² | - |
| 1777633228 | 16.11° C | 40% | 1026.3 hPa | 0 mm | - | 791 W/m² | - |
| 1777633167 | 16.11° C | 40% | 1026.3 hPa | 0 mm | - | 652 W/m² | - |
| 1777633147 | 16.11° C | 41% | 1026.2 hPa | 0 mm | - | 719 W/m² | - |
| 1777633106 | 16.11° C | 41% | 1026.2 hPa | 0 mm | - | 719 W/m² | - |
| 1777633048 | 16.11° C | 40% | 1026.3 hPa | 0 mm | - | 589 W/m² | - |
| 1777632988 | 16.11° C | 40% | 1026.3 hPa | 0 mm | - | 543 W/m² | - |
| 1777632968 | 16.11° C | 40% | 1026.3 hPa | 0 mm | - | 543 W/m² | - |
| 1777632928 | 16.11° C | 39% | 1026.4 hPa | 0 mm | - | 552 W/m² | - |
| 1777632868 | 16.11° C | 39% | 1026.3 hPa | 0 mm | - | 605 W/m² | - |
| 1777632808 | 16.11° C | 39% | 1026.3 hPa | 0 mm | - | 563 W/m² | - |
| 1777632787 | 16.11° C | 39% | 1026.3 hPa | 0 mm | - | 563 W/m² | - |
| 1777632747 | 16.11° C | 39% | 1026.4 hPa | 0 mm | - | 545 W/m² | - |
| 1777632687 | 16.11° C | 40% | 1026.3 hPa | 0 mm | - | 540 W/m² | - |
| 1777632627 | 16.11° C | 40% | 1026.3 hPa | 0 mm | - | 566 W/m² | - |
| 1777632607 | 16.11° C | 40% | 1026.3 hPa | 0 mm | - | 566 W/m² | - |
| 1777632567 | 16.11° C | 40% | 1026.3 hPa | 0 mm | - | 573 W/m² | - |
| 1777632508 | 16.11° C | 39% | 1026.3 hPa | 0 mm | - | 570 W/m² | - |
| 1777632448 | 16.11° C | 40% | 1026.4 hPa | 0 mm | - | 566 W/m² | - |
* Rain latest hour (hover to see other rain measurements)
** Current wind speed in m/s (hover to see current wind gust speed)